Date String (YYYY-MM-DD hh:mm:ss) UTC,Instrument flags,absolute air pressure of the measurement (hPa),sample flow rate (lpm),inlet stack bypass flow (lpm),air temperature of the measurement (°C),ambient temperature measured by the external sensor (°C),aerosol sample conditioner tube jacket temperature (°C),OPC LED temperature (°C),internal box temperature (°C),relative humidity of the measurement (%),span deviation,mass concentration of particles derived from Lorenz-Mie calculation of OPC scattering (μg/m³),mass concentration of particles derived from Lorenz-Mie calculation of OPC scattering (μg/m³),mass concentration of particles derived from Lorenz-Mie calculation of OPC scattering (μg/m³)
DateTimeUTC,F1_M11,P_M11,Q1_M11,Q2_M11,T1_M11,T2_M11,T3_M11,T4_M11,T5_M11,U1_M11,ZSPAN_M11,X2_M11,X0_M11,X1_M11
2024-04-19 17:00:00,SystemResetWarning,0833.2,5.00,000.00,019.7,019.1,000.0,028.1,021.4,026.2,0000.0,0003.79,0004.84,0003.61
2024-04-19 17:01:00,SystemResetWarning,0833.1,5.00,000.00,019.7,019.1,000.0,028.1,021.4,026.5,0000.0,0003.78,0004.87,0003.60
2024-04-19 17:02:00,SystemResetWarning,0833.2,5.00,000.00,019.7,019.1,000.0,028.1,021.4,026.7,0000.0,0003.76,0004.83,0003.59
2024-04-19 17:03:00,SystemResetWarning,0833.1,5.00,000.00,019.7,019.1,000.0,028.2,021.4,026.2,0000.0,0003.73,0004.81,0003.55
2024-04-19 17:04:00,SystemResetWarning,0833.1,5.01,000.00,019.7,019.1,000.0,028.2,021.5,026.0,0000.0,0003.68,0004.65,0003.52
2024-04-19 17:05:00,SystemResetWarning,0833.1,5.01,000.00,019.7,019.1,000.0,028.2,021.5,025.8,0000.0,0003.64,0004.44,0003.50
2024-04-19 17:06:00,SystemResetWarning,0833.1,5.01,000.00,019.7,019.1,000.0,028.2,021.5,025.7,0000.0,0003.63,0005.72,0003.49
2024-04-19 17:07:00,SystemResetWarning,0833.2,5.00,000.00,019.7,019.1,000.0,028.2,021.5,025.6,0000.0,0003.60,0005.74,0003.47
2024-04-19 17:08:00,SystemResetWarning,0833.2,5.00,000.00,019.7,019.2,000.0,028.2,021.5,025.6,0000.0,0003.59,0005.72,0003.46
2024-04-19 17:09:00,SystemResetWarning,0833.2,4.99,000.00,019.7,019.2,000.0,028.2,021.5,025.7,0000.0,0003.58,0005.69,0003.45
2024-04-19 17:10:00,SystemResetWarning,0833.2,5.00,000.00,019.7,019.2,000.0,028.2,021.5,025.5,0000.0,0003.55,0005.64,0003.45
2024-04-19 17:11:00,SystemResetWarning,0833.2,5.01,000.00,019.7,019.2,000.0,028.2,021.5,025.4,0000.0,0003.56,0005.90,0003.44
2024-04-19 17:12:00,SystemResetWarning,0833.2,5.01,000.00,019.7,019.2,000.0,028.2,021.5,025.6,0000.0,0003.58,0006.71,0003.45
2024-04-19 17:13:00,SystemResetWarning,0833.1,4.98,000.00,019.7,019.2,000.0,028.2,021.5,025.7,0000.0,0003.59,0006.79,0003.45
2024-04-19 17:14:00,SystemResetWarning,0833.2,4.99,000.00,019.7,019.2,000.0,028.2,021.5,026.0,0000.0,0003.62,0006.87,0003.47
2024-04-19 17:15:00,SystemResetWarning,0833.2,5.00,000.00,019.7,019.2,000.0,028.2,021.5,025.9,0000.0,0003.64,0006.97,0003.49
2024-04-19 17:16:00,SystemResetWarning,0833.2,5.00,000.00,019.7,019.2,000.0,028.2,021.5,025.9,0000.0,0003.65,0006.96,0003.50
2024-04-19 17:17:00,SystemResetWarning,0833.2,5.01,000.00,019.7,019.2,000.0,028.2,021.5,025.9,0000.0,0003.68,0006.15,0003.52
2024-04-19 17:18:00,SystemResetWarning,0833.2,5.01,000.00,019.7,019.2,000.0,028.2,021.5,025.9,0000.0,0003.71,0005.83,0003.55
2024-04-19 17:19:00,SystemResetWarning,0833.2,5.01,000.00,019.7,019.2,000.0,028.2,021.5,025.8,0000.0,0003.73,0005.83,0003.56
2024-04-19 17:20:00,SystemResetWarning,0833.2,5.00,000.00,019.7,019.2,000.0,028.2,021.5,025.8,0000.0,0003.77,0005.95,0003.59
2024-04-19 17:21:00,SystemResetWarning,0833.2,5.00,000.00,019.7,019.2,000.0,028.2,021.5,025.8,0000.0,0003.79,0006.00,0003.60
2024-04-19 17:22:00,SystemResetWarning,0833.2,5.00,000.00,019.7,019.2,000.0,028.2,021.5,025.6,0000.0,0003.82,0005.91,0003.62
2024-04-19 17:23:00,SystemResetWarning,0833.2,4.99,000.00,019.7,019.2,000.0,028.2,021.5,025.7,0000.0,0003.84,0005.24,0003.64
2024-04-19 17:24:00,SystemResetWarning,0833.2,5.00,000.00,019.7,019.2,000.0,028.2,021.5,025.9,0000.0,0003.85,0005.50,0003.65
2024-04-19 17:25:00,SystemResetWarning,0833.2,4.99,000.00,019.7,019.2,000.0,028.2,021.5,025.7,0000.0,0003.88,0005.79,0003.67
2024-04-19 17:26:00,SystemResetWarning,0833.2,5.00,000.00,019.7,019.2,000.0,028.2,021.5,025.9,0000.0,0003.90,0005.82,0003.70
2024-04-19 17:27:00,SystemResetWarning,0833.3,5.00,000.00,019.7,019.1,000.0,028.2,021.5,025.9,0000.0,0003.93,0006.02,0003.72
2024-04-19 17:28:00,SystemResetWarning,0833.3,5.00,000.00,019.7,019.1,000.0,028.2,021.5,026.1,0000.0,0003.95,0006.02,0003.74
2024-04-19 17:29:00,SystemResetWarning,0833.3,5.00,000.00,019.7,019.1,000.0,028.2,021.5,026.4,0000.0,0003.96,0005.88,0003.76
2024-04-19 17:30:00,SystemResetWarning,0833.3,5.00,000.00,019.7,019.2,000.0,028.2,021.5,026.4,0000.0,0003.99,0005.94,0003.80
2024-04-19 17:31:00,SystemResetWarning,0833.3,4.99,000.00,019.7,019.1,000.0,028.2,021.5,026.3,0000.0,0004.01,0005.92,0003.82
2024-04-19 17:32:00,SystemResetWarning,0833.3,4.99,000.00,019.7,019.2,000.0,028.2,021.5,026.0,0000.0,0004.03,0005.99,0003.84
2024-04-19 17:33:00,SystemResetWarning,0833.2,5.00,000.00,019.7,019.2,000.0,028.2,021.5,026.0,0000.0,0004.03,0005.96,0003.84
2024-04-19 17:34:00,SystemResetWarning,0833.2,5.00,000.00,019.7,019.2,000.0,028.2,021.5,025.8,0000.0,0004.04,0006.00,0003.85
2024-04-19 17:35:00,SystemResetWarning,0833.2,5.01,000.00,019.7,019.2,000.0,028.2,021.5,025.6,0000.0,0004.04,0005.70,0003.86
2024-04-19 17:36:00,SystemResetWarning,0833.3,5.01,000.00,019.7,019.2,000.0,028.2,021.5,025.6,0000.0,0004.01,0005.29,0003.85
2024-04-19 17:37:00,SystemResetWarning,0833.3,5.00,000.00,019.7,019.2,000.0,028.2,021.5,025.4,0000.0,0004.03,0005.32,0003.84
2024-04-19 17:38:00,SystemResetWarning,0833.3,4.98,000.00,019.7,019.2,000.0,028.2,021.5,025.3,0000.0,0004.03,0005.28,0003.83
2024-04-19 17:39:00,SystemResetWarning,0833.3,5.00,000.00,019.7,019.2,000.0,028.2,021.5,025.5,0000.0,0004.01,0005.23,0003.81
2024-04-19 17:40:00,SystemResetWarning,0833.4,5.01,000.00,019.7,019.2,000.0,028.2,021.5,025.7,0000.0,0004.00,0005.27,0003.79
2024-04-19 17:41:00,SystemResetWarning,0833.3,5.01,000.00,019.7,019.2,000.0,028.2,021.5,026.0,0000.0,0003.98,0005.31,0003.77
2024-04-19 17:42:00,SystemResetWarning,0833.2,5.00,000.00,019.8,019.2,000.0,028.2,021.5,026.6,0000.0,0003.97,0005.30,0003.77
2024-04-19 17:43:00,SystemResetWarning,0833.2,4.99,000.00,019.8,019.2,000.0,028.2,021.5,026.8,0000.0,0003.96,0005.28,0003.77
2024-04-19 17:44:00,SystemResetWarning,0833.2,4.99,000.00,019.8,019.2,000.0,028.2,021.5,026.6,0000.0,0003.95,0005.20,0003.78
2024-04-19 17:45:00,SystemResetWarning,0833.2,5.00,000.00,019.8,019.2,000.0,028.2,021.5,026.5,0000.0,0003.94,0005.08,0003.79
2024-04-19 17:46:00,SystemResetWarning,0833.2,5.01,000.00,019.7,019.2,000.0,028.2,021.5,026.5,0000.0,0003.95,0005.04,0003.80
2024-04-19 17:47:00,SystemResetWarning,0833.2,5.01,000.00,019.7,019.2,000.0,028.2,021.5,026.8,0000.0,0003.96,0005.06,0003.80
2024-04-19 17:48:00,SystemResetWarning,0833.3,5.00,000.00,019.7,019.2,000.0,028.2,021.5,026.8,0000.0,0003.95,0004.98,0003.81
2024-04-19 17:49:00,SystemResetWarning,0833.2,5.00,000.00,019.7,019.2,000.0,028.2,021.5,026.6,0000.0,0003.95,0004.92,0003.82
2024-04-19 17:50:00,SystemResetWarning,0833.2,4.99,000.00,019.7,019.2,000.0,028.2,021.5,026.6,0000.0,0003.96,0004.98,0003.83
2024-04-19 17:51:00,SystemResetWarning,0833.2,4.99,000.00,019.8,019.2,000.0,028.2,021.5,026.5,0000.0,0003.97,0005.11,0003.84
2024-04-19 17:52:00,SystemResetWarning,0833.3,5.01,000.00,019.8,019.2,000.0,028.2,021.5,026.5,0000.0,0004.02,0005.14,0003.86
2024-04-19 17:53:00,SystemResetWarning,0833.2,5.01,000.00,019.8,019.2,000.0,028.2,021.5,026.4,0000.0,0004.08,0005.37,0003.88
2024-04-19 17:54:00,SystemResetWarning,0833.3,5.01,000.00,019.8,019.2,000.0,028.2,021.5,026.2,0000.0,0004.09,0005.99,0003.89
2024-04-19 17:55:00,SystemResetWarning,0833.3,4.99,000.00,019.7,019.2,000.0,028.2,021.5,025.9,0000.0,0004.11,0006.74,0003.90
2024-04-19 17:56:00,SystemResetWarning,0833.2,5.00,000.00,019.8,019.2,000.0,028.2,021.5,025.9,0000.0,0004.11,0006.77,0003.89
2024-04-19 17:57:00,SystemResetWarning,0833.2,4.99,000.00,019.8,019.2,000.0,028.2,021.5,026.3,0000.0,0004.07,0006.65,0003.88
2024-04-19 17:58:00,SystemResetWarning,0833.2,5.01,000.00,019.8,019.2,000.0,028.2,021.5,026.6,0000.0,0004.07,0006.67,0003.86
2024-04-19 17:59:00,SystemResetWarning,0833.2,5.02,000.00,019.8,019.2,000.0,028.2,021.5,026.6,0000.0,0004.09,0006.72,0003.87
